Regional Weather Roundup
Issued by NWS

Home | Current Version | Previous Version | Graphics & Text | Print | Product List | Glossary Off
Versions: 1 2 3 4 5 6 7 8 9 10 11 12 13 14 15 16 17 18 19 20 21 22 23 24 25 26 27 28 29 30 31 32 33 34 35 36 37 38 39 40 41 42 43 44 45 46 47 48 49 50

000
ASUS43 KTOP 041708
RWRKS

WEATHER ROUNDUP FOR KANSAS
NATIONAL WEATHER SERVICE GOODLAND KS
1200 PM CDT FRI SEP 04 2015

NOTE:  "FAIR" INDICATES FEW OR NO CLOUDS BELOW 12,000 FEET WITH NO
SIGNIFICANT WEATHER AND/OR OBSTRUCTIONS TO VISIBILITY.

KSZ001>006-013>018-027>032-041>047-041800-
NORTHWEST KANSAS

CITY           SKY/WX    TMP DP  RH WIND       PRES   REMARKS
GOODLAND       SUNNY     86  49  27 W6        29.94S
HAYS           MOSUNNY   91  61  35 S24G32    29.87S
HILL CITY      SUNNY     90  59  35 S14G20    29.87S
RUSSELL        MOSUNNY   90  62  39 S24G33    29.88S
$$

KSZ061>065-074>080-084>089-041800-
SOUTHWEST KANSAS

CITY           SKY/WX    TMP DP  RH WIND       PRES   REMARKS
DODGE CITY     MOSUNNY   87  58  37 S21G26    29.94S
ELKHART          N/A     87  58  37 SE5         N/A
GARDEN CITY    MOSUNNY   84  58  40 S9        29.92S
GREAT BEND     MOSUNNY   91  63  38 S25       29.90S
LIBERAL        MOSUNNY   88  57  35 S14G22    29.95S
PRATT          SUNNY     88  61  40 MISG      29.96S
$$

KSZ066>073-081>083-090>101-041800-
SOUTHEAST KANSAS

CITY           SKY/WX    TMP DP  RH WIND       PRES   REMARKS
CHANUTE        SUNNY     86  69  56 S15       30.01F
COFFEYVILLE    SUNNY     86  71  60 S13       30.01S
HUTCHINSON     SUNNY     89  66  46 S20G29    29.96S
MEDICINE LODGE   N/A     89  65  44 S16G25    29.94S
NEWTON         SUNNY     88  64  45 S21G26    30.00S
PARSONS        SUNNY     86  72  62 S10       30.02F
WICHITA INTL   MOSUNNY   88  66  48 S16G28    29.96F
WICHITA JABRA  SUNNY     86  68  54 S16G22    29.97F
WICHITA MCCONL SUNNY     87  64  46 S16       29.97F
WINFIELD       SUNNY     90  67  46 S14       29.99F
$$

KSZ007>012-019>026-033>040-048>060-102>105-041800-
NORTHEAST KANSAS

CITY           SKY/WX    TMP DP  RH WIND       PRES   REMARKS
CONCORDIA      SUNNY     89  65  44 S20G33    29.91R
EMPORIA        SUNNY     87  66  49 S13G22    29.99S
LAWRENCE       SUNNY     88  68  51 S9G21     29.98F
MANHATTAN      SUNNY     91  65  41 S18G26    29.93F
MARYSVILLE     MOSUNNY   88  68  51 S14       29.93F
OLATHE IND     SUNNY     86  70  58 S9G20     30.01S
OLATHE EXE     SUNNY     84  69  60 S14       30.00F
SALINA         SUNNY     91  66  43 S23G30    29.92S
TOPEKA BILLARD SUNNY     87  68  52 S12       29.97F
TOPEKA FORBES  SUNNY     88  68  51 S16       29.98F
$$


USA.gov is the U.S. government's official web portal to all federal, state and local government web resources and services.